{"data":{"norad_id":46055,"epoch":"2026-09-19T15:23:24.552960Z","epoch_age_seconds":92429,"freshness":"FRESH","line1":"1 46055U 20055AE  26262.64125640  .00000799  00000+0  37484-4 0  9992","line2":"2 46055  53.1602 291.4234 0001151  86.9763 273.1370 15.31714018338795","mean_motion":15.31714018,"eccentricity":0.0001151,"inclination_deg":53.1602,"raan_deg":291.4234,"arg_perigee_deg":86.9763,"mean_anomaly_deg":273.137,"bstar":3.7484e-5,"rev_number":33879,"period_min":94.012327567534,"perigee_km":469.90990768326,"apogee_km":471.48650954829,"semimajor_km":6848.8352086158,"source":"CELESTRAK","updated_at":"2026-09-20T09:00:38.462786Z"}}